Погода в Херсоне

Украина / Херсонская область     46°38′25″N   32°36′53″E
В апреле 2022 года жителям России запретили посещать сайт meteo.paraplan.net по решению Генеральной прокуратуры. Аудитория сайта уменьшилась в 10 раз. Владельцы сайта не видят смысла в поддержке погодного сервера в таких условиях. Сайт будет закрыт в октябре.
темп.,
°C
ветер,
м/с
пор.,
м/с
влажн.,
%
обл.,
%
осадки,
мм/ч
давл.,
гПа
погр.,
м
4 октября, вт
вт400:00+12зсз34840 1.1 101074
03:00+10зсз347722 1.1 101169
06:00+10з37785 0.0 1012134
09:00+12зсз56735 0.0 1014498
12:00+15зсз564910 0.0 10151168
15:00+17зсз67405 0.0 10161697
18:00+14зсз364570 0.0 1018303
21:00+12зсз345171 0.0 102078
5 октября, ср
ср500:00+11з356584 0.0 1022106
03:00+10зсз377357 0.0 1023144
06:00+9зсз367949 0.0 1024114
09:00+12сз46685 0.0 1025334
12:00+17зсз45475 0.0 10261462
15:00+17зсз554598 0.0 10251568
18:00+15з234725 0.0 1025168
21:00+13зюз2251100 0.0 102730
6 октября, чт
чт600:00+12з1258100 0.0 102725
03:00+12ссз226096 0.0 102716
06:00+11ссз2262100 0.0 102723
09:00+13ссз1157100 0.0 1027112
12:00+17з2246100 0.0 1027655
15:00+19з333764 0.0 10261131
18:00+16зюз33485 0.0 102685
21:00+13зюз226110 0.0 102632
7 октября, пт
пт700:00+13з226610 0.0 102727
03:00+12зсз237181 0.0 102729
06:00+11сз227465 0.0 102627
09:00+15с235344 0.0 1026173
12:00+20ссв3342100 0.0 1026818
15:00+22ссв454072 0.0 10241345
18:00+19ссв474947 0.0 1024247
21:00+15ссв48665 0.0 1024165
8 октября, сб
сб800:00+14ссв497521 0.0 1024184
03:00+13св488170 0.0 1023177
06:00+12св488794 0.0 1022155
09:00+15св586870 0.0 1022319
12:00+20всв5643100 0.0 10211012
15:00+21всв5538100 0.0 10191353
18:00+18св4647100 0.0 1019172
21:00+16ссв4753100 0.0 1019144